Regional Weather Roundup
Issued by NWS

Home | Current Version | Previous Version | Graphics & Text | Print | Product List | Glossary On
Versions: 1 2 3 4 5 6 7 8 9 10 11 12 13 14 15 16 17 18 19 20 21 22 23 24 25 26 27 28 29 30 31 32 33 34 35 36 37 38 39 40 41 42 43 44 45 46 47 48 49 50
000
ASUS43 KDTX 162110
RWRMI
MICHIGAN HOURLY REGIONAL WEATHER ROUNDUP
NATIONAL WEATHER SERVICE DETROIT/PONTIAC MI
500 PM EDT WED AUG 16 2017

NOTE: "FAIR" INDICATES FEW OR NO CLOUDS BELOW 12,000 FEET WITH NO
SIGNIFICANT WEATHER AND/OR OBSTRUCTION TO VISIBILITY.

MIZ047>049-052>055-059>063-066>070-074>076-081>083-162200-
SOUTHEAST LOWER MICHIGAN

CITY           SKY/WX    TMP DP  RH WIND       PRES   REMARKS
ADRIAN         SUNNY     86  62  44 SE10G17   30.00F
ALMA           MOSUNNY   83  60  44 CALM      29.99F
ANN ARBOR      MOSUNNY   82  61  48 SE5       30.01F
BAD AXE        SUNNY     76  59  55 E7        30.05F
CARO           MOSUNNY   81  61  50 SE7       30.02F
DETROIT CITY   SUNNY     81  61  50 E10       30.03F
DETROIT        MOSUNNY   83  60  45 S8        30.02F
FLINT          MOSUNNY   82  61  48 SE9       30.01F
GROSSE ILE     SUNNY     79  62  54 S7        30.02F
HILLSDALE      MOSUNNY   82  63  51 SE5       30.00F
HOWELL         MOSUNNY   84  58  40 E5        30.01F

CITY           SKY/WX    TMP DP  RH WIND       PRES   REMARKS
JACKSON          N/A    N/A N/A N/A MISG      30.00F
LAMBERTVILLE   SUNNY     81  63  54 E10       30.00F
LANSING        MOSUNNY   84  61  45 MISG      29.99F
LAPEER         FAIR      80  60  50 E7        30.03F
MASON          PTSUNNY   84  66  54 SE8       29.99F
MONROE         SUNNY     80  62  54 E12G17    30.01F
MT. CLEMENS    MOSUNNY   79  60  50 E9        30.03F
PONTIAC        MOSUNNY   81  58  45 SE10      30.01F
PORT HOPE        N/A     72  65  78 E12       30.04F
PORT HURON     MOSUNNY   79  61  53 N5        30.04F
TRI CITIES     SUNNY     81  66  60 E10       30.01F
MIDLAND        FAIR      81  64  57 E12       30.00F
TROY           MOSUNNY   83  56  40 E9        30.04F
SAGINAW HB     MOSUNNY   81  59  47 S7        30.00F
$$
MIZ043>046-050>051-056>058-064>065-071>073-077>080-162200-
SOUTHWEST LOWER MICHIGAN

CITY           SKY/WX    TMP DP  RH WIND       PRES   REMARKS
BATTLE CREEK   MOSUNNY   86  63  45 VRB6      29.98F
BENTON HARBOR  PTSUNNY   86  67  52 VRB5      29.93F
BIG RAPIDS     MOSUNNY   81  59  46 SW5       29.97F
COLDWATER      MOSUNNY   84  61  44 S6        29.99S
FREMONT        FAIR      84  60  44 S5        29.96F
HOLLAND        MOSUNNY   86  65  49 CALM      29.95F
GRAND RAPIDS   MOSUNNY   86  61  42 VRB5      29.96F
IONIA          FAIR      84  58  40 SE5       29.97F
KALAMAZOO      MOSUNNY   89  61  38 S8        29.96F
LUDINGTON      SUNNY     78  60  53 W3        29.96F
MARSHALL       PTSUNNY   86  62  44 E5        29.98F
MOUNT PLEASANT MOSUNNY   84  60  45 E10       29.99F
MUSKEGON       MOSUNNY   87  62  43 SW10      29.95F
SOUTH HAVEN    MOSUNNY   87  64  46 SE5       29.94F
$$
MIZ016>042-162200-
NORTHERN LOWER MICHIGAN

CITY           SKY/WX    TMP DP  RH WIND       PRES   REMARKS
ALPENA         SUNNY     71  64  78 E9        30.06F
BEAVER ISLAND  SUNNY     74  64  71 E12G17    30.01F
BELLAIRE       MOSUNNY   80  57  44 S6        29.98F
CADILLAC       MOSUNNY   81  60  48 S5        30.00F
CHARLEVOIX     SUNNY     78  62  59 N9        30.02F
FRANKFORT      SUNNY     78  64  62 CALM      29.98S
GAYLORD        PTSUNNY   78  60  53 VRB6      30.02F
GRAYLING       SUNNY     79  57  47 S7        30.02F
HARBOR SPRINGS PTSUNNY   78  60  53 NE12      29.99F
HOUGHTON LAKE  SUNNY     78  61  55 SE7       30.02F
OSCODA         PTSUNNY   73  62  70 SE8       30.05F
PELLSTON       MOSUNNY   79  62  56 E10       30.01F
ROGERS CITY    MOSUNNY   75  61  63 E9        30.05F
TRAVERSE CITY  MOSUNNY   84  58  40 SE9       29.95F
$$
MIZ007>008-015-162200-
EASTERN UPPER MICHIGAN

CITY           SKY/WX    TMP DP  RH WIND       PRES   REMARKS
KINROSS        CLOUDY    73  60  63 E12       30.05F
MACKINAC ISLAN SUNNY     68  63  83 E16       30.04F
NEWBERRY       MOSUNNY   73  61  67 SE7       30.01F
S. S. MARIE    MOSUNNY   75  59  57 E8        30.04F
MUNISING         N/A     71  65  81 NE13      29.99F
$$
MIZ004>006-011>014-085-162200-
CENTRAL UPPER MICHIGAN

CITY           SKY/WX    TMP DP  RH WIND       PRES   REMARKS
MANISTIQUE     SUNNY     72  60  67 SE10      30.00F
ESCANABA       SUNNY     71  64  78 SE8       29.99F
MENOMINEE      SUNNY     71  58  63 E10       29.98F
SAWYER-GWINN   SUNNY     73  52  46 SE9       30.01F
$$
MIZ001>003-009>011-084-162200-
WESTERN UPPER MICHIGAN

CITY           SKY/WX    TMP DP  RH WIND       PRES   REMARKS
IRON MOUNTAIN  MOSUNNY   74  54  49 S6        29.97F
HOUGHTON       MOSUNNY   66  56  70 E13       29.98F
COPPER HARBOR    N/A     68  56  65 MISG      29.98F
IRONWOOD       CLOUDY    74  58  57 E7        29.95F
$$

ABBREVIATIONS USED IN REMARKS
   TC - TEMPERATURE IN CELSIUS
  WCI - WIND CHILL INDEX
   HX - HEAT INDEX
  VSB - VISIBILITY





USA.gov is the U.S. government's official web portal to all federal, state and local government web resources and services.